Regional Weather Roundup
Issued by NWS Grand Forks, ND

Home | Current Version | Previous Version | Text Only | Print | Product List | Glossary On
Versions: 1 2 3 4 5 6 7 8 9 10 11 12 13 14 15 16 17 18 19 20 21 22 23 24 25 26 27 28 29 30 31 32 33 34 35 36 37 38 39 40 41 42 43 44 45 46 47 48 49 50
000
ASUS43 KFGF 252331
RWRFGF
PRAIRIE TO PINES  WEATHER ROUNDUP
NATIONAL WEATHER SERVICE EASTERN NORTH DAKOTA/GRAND FORKS ND
600 PM CDT SUN JUN 25 2017

 **SATELLITE DATA USED TO AUGMENT SKY COVER AT AUTOMATED STATIONS**
 *****  WEATHER ACROSS EASTERN NORTH DAKOTA  *****

CITY           SKY/WX    TMP DP  RH WIND       PRES   REMARKS
GRAND FORKS    FAIR      67  41  38 N16       30.17S
GRAND FRKS AFB FAIR      66  41  39 NE12G21   30.18S
DEVILS LAKE    FAIR      64  38  38 NW17      30.21F
FARGO          PTSUNNY   68  41  37 N15       30.16S
WAHPETON ARPT  FAIR      64  41  42 NW9       30.17F
$$

 ***** WEATHER ACROSS CENTRAL AND WESTERN NORTH DAKOTA  *****

CITY           SKY/WX    TMP DP  RH WIND       PRES   REMARKS
BISMARCK       PTSUNNY   71  46  40 N16       30.21R
MINOT          FAIR      68  43  40 N9        30.22S
JAMESTOWN      CLOUDY    60  49  66 W3        30.20S
MINOT AFB      FAIR      68  41  36 N13       30.21F
GARRISON         N/A     68  40  35 NE8       30.21S
WILLISTON      FAIR      75  41  29 N9        30.23F
DICKINSON      FAIR      71  35  26 N16G22    30.21S
HETTINGER      FAIR      74  35  24 N16       30.22S
$$

 *****  OTHER AIRPORT OBSERVATIONS IN OUR AREA  *****

CITY           SKY/WX    TMP DP  RH WIND       PRES   REMARKS
WALHALLA       NOT AVBL
GRAFTON AIRPOR FAIR      64  41  42 N18G26    30.20S
VALLEY CITY AR MOCLDY    63  43  48 N13G18    30.20S
CANDO          NOT AVBL
CAVALIER APRT  FAIR      64  41  42 N9        30.18F
GWINNER        MOCLDY    57  48  72 NW15G22   30.19R
SHEYENNE NWR     N/A     67  48  50 W5        29.95S
ROLLA            N/A     63  37  39 NW10G17   30.24S
 ***** THE ABOVE OBSERVATIONS ARE NON NWS ARE NOT QUALITY
       CONTROLLED AND MAY MIS-REPORT RAIN FOR SNOW...
$$

  *****  WEATHER ACROSS NORTHERN MINNESOTA  *****

CITY           SKY/WX    TMP DP  RH WIND       PRES   REMARKS
FLAG ISLAND    FAIR      59  45  58 NW13      30.14S
WARROAD        FAIR      61  45  55 NW9       30.16S
ROSEAU         FAIR      57  48  72 NW7       30.16F
HALLOCK        PTSUNNY   55  48  76 N20       30.20R
THF RVR FALLS  CLOUDY    59  44  57 W10       30.18R
BAUDETTE       FAIR      60  45  57 NW15      30.14S
WASKISH        PTSUNNY   59  48  67 N7        30.14S
CROOKSTON      FAIR      63  43  48 N15       30.17F
STEPHEN NDAWN    N/A     64  43  45 N13         N/A
GREENBUSH NDAW   N/A     57  46  67 NE9         N/A
$$
  *****  WEATHER ACROSS CENTRAL AND WEST MINNESOTA  *****

CITY           SKY/WX    TMP DP  RH WIND       PRES   REMARKS
FOSSTON        FAIR      61  46  59 N14       30.17R
BEMIDJI        FAIR      55  45  67 NW12      30.15S
PARK RAPIDS    PTSUNNY   62  36  37 N15G22    30.14S
ELBOW LAKE     CLOUDY    60  48  62 NW8       30.17F
WADENA         FAIR      63  43  48 NW12G17   30.14F
DETROIT LAKES  FAIR      63  37  39 N13G22    30.16F
MOORHEAD       FAIR      66  39  37 N14       30.16F
FERGUS FALLS   FAIR      63  46  55 W7        30.14F
MORRIS MN      PTSUNNY   64  46  52 N18G24    30.18R
STAPLES        PTSUNNY   63  37  39 NW18      30.14S
$$
  *****  WEATHER ELSEWHERE ACROSS MINNESOTA  *****

CITY           SKY/WX    TMP DP  RH WIND       PRES   REMARKS
DULUTH         LGT RAIN  54  48  80 NW16G22   30.09R
INTRNTL FALLS  CLOUDY    56  44  64 NE6       30.12S
ELY            CLOUDY    48  46  93 NW6       30.10R
CLOQUET        LGT RAIN  54  46  76 NW6       30.11R
WHEATON        FAIR      63  46  55 N5        30.19S
BRAINERD       FAIR      64  37  36 NW18G24   30.12F
HIBBING        PTSUNNY   53  46  77 N9        30.11S
ALEXANDRIA     CLOUDY    62  43  49 NW13      30.18S
SAINT CLOUD    FAIR      66  40  38 NW14G24   30.13F
MINNEAPOLIS    FAIR      66  39  37 NW20G28   30.12F
$$

  *****  WEATHER ACROSS SOUTH DAKOTA  *****

CITY           SKY/WX    TMP DP  RH WIND       PRES   REMARKS
SIOUX FALLS    PTSUNNY   72  46  39 NW15      30.21F
BROOKINGS      FAIR      66  43  43 N10       30.22F
WATERTOWN      LGT RAIN  56  49  77 NW8       30.22F
HURON          CLOUDY    71  44  37 N7        30.18F
SISSETON         N/A     67  43  41 W16G25    30.16F
ABERDEEN       FAIR      58  50  75 E6        30.20F
MITCHELL       FAIR      76  39  26 E3        30.19F
PIERRE         FAIR      76  35  22 NW8       30.14F
MOBRIDGE       FAIR      76  37  24 N14       30.17F
RAPID CITY     FAIR      79  37  22 NW5       30.20F
$$

  *****  SOME WEATHER IN NEARBY STATES *****

CITY           SKY/WX    TMP DP  RH WIND       PRES   REMARKS
GLASGOW MT     FAIR      79  34  19 NW9       30.20F
GREAT FALLS MT FAIR      81  37  20 MISG      30.20F
CHEYENNE WY    FAIR      68  47  46 VRB5      30.33F
SCOTTSBLUFF NE FAIR      78  42  27 SE8       30.24F
OMAHA NE       FAIR      77  41  27 VRB3      30.23F
DES MOINES IA  FAIR      74  42  31 NW15G22   30.20S
DAVENPORT IA   FAIR      67  49  52 NW13      30.16S
CHICAGO IL     PTSUNNY   70  47  43 W17G28    30.06S
EAU CLAIRE WI  PTSUNNY   63  43  48 NW17G30   30.08S
LA CROSSE WI   FAIR      72  46  39 W20G26    30.09F
$$

  *****  SOME NATIONAL WEATHER *****

CITY           SKY/WX    TMP DP  RH WIND       PRES   REMARKS
LA GUARDIA NY  FAIR      79  60  52 S10       29.92R
RALEIGH NC     CLOUDY    79  63  57 NW3       30.05S
ATLANTA GA     PTSUNNY   75  60  59 NW12      30.14R
NEW ORLEANS LA PTSUNNY   85  74  69 NE6       30.07S HX  92
OKLAHOMA CITY  PTSUNNY   85  48  27 E12       30.17F
ALBUQUERQUE NM CLOUDY    72  51  47 SW31G39   30.22F
SALT LAKE CITY FAIR      93  36  13 NW8       30.11F
LOS ANGELES CA FAIR      73  60  63 SW16G24   29.87F
BOISE ID       FAIR      96  31  10 E7        30.02F HX  90
SEATTLE WA     PTSUNNY   94  47  20 W8        29.85F HX  90
$$

*** WEATHER ACROSS MANITOBA...SASKATCHEWAN AND ONTARIO ***
                ***ONTARIO***

CITY           SKY/WX    TMP DP  RH WIND       PRES   REMARKS
GERALDTON      PTSUNNY   59  34  38 NE7       30.02S
THUNDER BAY    CLOUDY    55  50  82 N5        30.03S
SIOUX LOOKOUT  PTSUNNY   57  43  58 NW8       30.08S
TORONTO        MOSUNNY   68  46  45 W23       29.94R
BIG TROUT LK   SUNNY     63  39  42 S7        29.98F
PICKLE LAKE    LGT RAIN  54  45  71 NW7       30.05R
DRYDEN         PTSUNNY   57  43  58 VRB5      30.10S
KENORA         PTSUNNY   57  46  67 NW7       30.14F
$$
                *** MANITOBA***

CITY           SKY/WX    TMP DP  RH WIND       PRES   REMARKS
BRANDON        MOSUNNY   66  43  42 NW12G20   30.22S
DAUPHIN        MOSUNNY   66  43  42 NE12      30.21F
ISLAND LAKE    MOSUNNY   59  46  63 NW10      30.06F
PILOT MOUND      N/A     61  41  48 NW9         N/A
THE PAS        PTSUNNY   66  39  37 NW9       30.17F
THOMPSON       MOSUNNY   64  39  39 N10G21    30.09F
WINNIPEG       MOSUNNY   61  48  63 NW13      30.20S
LYNN LAKE      SUNNY     68  37  32 N10G20    30.13F
CHURCHILL      MOSUNNY   52  37  58 E5        30.05F
GILLAM         PTSUNNY   61  39  44 N17G24    30.04F
$$
                ***SASKATCHEWAN***

CITY           SKY/WX    TMP DP  RH WIND       PRES   REMARKS
ESTEVAN        MOSUNNY   66  41  39 N12       30.24S
KINDERSLEY     MOSUNNY   70  39  32 NW3       30.24S
LLOYDMINSTER   MOSUNNY   70  43  37 S3        30.22F
PRINCE ALBERT  MOSUNNY   68  36  30 N5        30.25F
REGINA         MOSUNNY   70  39  32 NW15G22   30.25F
YORKTON        CLOUDY    66  37  34 VRB7      30.24F
N. BATTLEFORD  MOSUNNY   72  41  33 SE3       30.25F
LA RONGE       MOSUNNY   70  37  30 SE12      30.21F
SASKATOON      MOSUNNY   70  39  32 CALM      30.26F
SWIFT CURRENT  MOSUNNY   68  41  37 N6        30.24F
$$
NOTE: THESE ARE AUTOMATED STATIONS WITH LIMITED QUALITY CONTROL
      "FAIR" INDICATES FEW OR NO CLOUDS BELOW 12,000 FEET WITH NO
      SIGNIFICANT WEATHER AND/OR OBSTRUCTIONS TO VISIBILITY.
      SKY/WX - SKY CONDITION AND SIGNIFICANT WEATHER.
      TMP - AIR TEMPERATURE.    DP   - DEWPOINT TEMPERATURE.
      RH  - RELATIVE HUMIDITY.  PRES - PRESSURE.
      HX  - HEAT INDEX.         WCI  - WIND CHILL INDEX.
$




USA.gov is the U.S. government's official web portal to all federal, state and local government web resources and services.